Location: Winter Haven
(28.0220°N, 81.7330°W)
Time: 17:48:15
(UTC-05:00)

Amateur Radio Satellites - All Passes

Search period start: 28 November 2014 17:18
Search period end: 29 November 2014 17:18
Location: Winter Haven, 28.0220°N, 81.7330°W

Satellite Date Start Highest point End Downlink Frequencies (MHz)
Time Altitude Azimuth
Cubesat XI-IV 28 Nov 17:27:30 17:32:15 33° 72° (ENE) 17:37:01 437.490
PCSat 28 Nov 17:48:59 17:52:34 18° 105° (ESE) 17:56:08 145.827
VERMONT LUNAR 28 Nov 17:54:28 17:57:16 21° 19° (NNE) 18:00:03 437.305
PHONESAT 2.4 28 Nov 17:55:16 17:57:50 17° 16° (NNE) 18:00:23 2401.200-2431.200
MOZHAYETS 4 28 Nov 18:03:59 18:08:02 30° 287° (WNW) 18:12:04
CUTE-I 28 Nov 18:07:21 18:12:43 86° 76° (ENE) 18:18:05 437.470
JAS-2 28 Nov 18:10:46 18:17:09 30° 264° (W) 18:23:50 435.910
PRISM 28 Nov 18:13:11 18:17:16 48° 100° (E) 18:21:18 437.425
CUBESAT XI-V 28 Nov 18:17:10 18:20:23 19° 96° (E) 18:23:34 437.345
STRAND 1 28 Nov 18:18:52 18:22:25 19° 96° (E) 18:25:56 437.568
BEESAT 3 28 Nov 18:28:03 18:31:14 22° 110° (ESE) 18:34:27 437.485
BEESAT 2 28 Nov 18:45:24 18:49:03 33° 112° (ESE) 18:52:46 435.950
Cubesat XI-IV 28 Nov 19:08:12 19:12:17 22° 263° (W) 19:16:23 437.490
AIST 1 28 Nov 19:19:54 19:24:12 59° 93° (E) 19:28:33
GONETS M04 28 Nov 19:23:30 19:32:13 62° 82° (E) 19:40:48
PCSat 28 Nov 19:30:29 19:35:34 42° 297° (WNW) 19:40:41 145.827
VERMONT LUNAR 28 Nov 19:32:22 19:36:00 78° 213° (SSW) 19:39:36 437.305
AIST 2 28 Nov 19:32:34 19:36:40 58° 114° (ESE) 19:40:50 435.215
PHONESAT 2.4 28 Nov 19:33:21 19:37:03 69° 31° (NNE) 19:40:44 2401.200-2431.200
CUBESAT XI-V 28 Nov 19:53:46 19:57:46 29° 287° (WNW) 20:01:44 437.345
STRAND 1 28 Nov 19:57:00 20:01:35 35° 288° (WNW) 20:06:09 437.568
CUTE 1.7 + AOD 2 28 Nov 20:04:26 20:07:41 22° 72° (ENE) 20:10:57 437.475
HO-68 28 Nov 20:05:41 20:12:24 45° 70° (ENE) 20:19:07 435.675
BEESAT 3 28 Nov 20:06:11 20:09:19 21° 303° (WNW) 20:12:29 437.485
BEESAT 2 28 Nov 20:24:58 20:27:23 15° 305° (NW) 20:29:50 435.950
DOVE 4 28 Nov 20:26:01 20:29:30 22° 73° (ENE) 20:32:52 437.250
BRITE-PL 28 Nov 20:26:25 20:31:17 47° 76° (ENE) 20:35:47 437.365/2234.400
SEEDS 28 Nov 20:32:47 20:36:45 43° 75° (ENE) 20:40:44 437.485
JUGNU 28 Nov 20:35:53 20:39:30 17° 162° (SSE) 20:43:08 437.505
DELFI C3 28 Nov 20:36:00 20:37:33 12° 70° (ENE) 20:39:05 145.870
CINEMA 3 28 Nov 20:40:16 20:43:07 17° 72° (ENE) 20:45:55 145.822/145.860
UKube-1 28 Nov 20:43:02 20:45:55 18° 70° (ENE) 20:48:48 .
AAUSAT CUBESAT 2 28 Nov 20:43:30 20:47:24 42° 75° (ENE) 20:51:21 437.432
Oscar 11 28 Nov 20:51:19 20:54:49 25° 72° (ENE) 20:58:20 145.826/435.025
ISS 28 Nov 21:00:21 21:03:08 26° 128° (SE) 21:05:56 145.825
COMPASS 1 28 Nov 21:00:41 21:04:50 86° 78° (ENE) 21:09:01 437.405
CANX-2 28 Nov 21:05:02 21:09:07 50° 260° (W) 21:13:13 2200.000
PHONESAT 2.4 28 Nov 21:13:23 21:15:32 15° 222° (SW) 21:17:40 2401.200-2431.200
DX 1 28 Nov 21:20:08 21:24:24 53° 75° (ENE) 21:28:40 434.975-435.025
GOMX 1 28 Nov 21:20:37 21:25:24 57° 259° (W) 21:29:53 467.674
GONETS M04 28 Nov 21:22:11 21:28:12 21° 277° (W) 21:34:12
UWE-3 28 Nov 21:23:58 21:27:39 29° 74° (ENE) 21:31:16 435.000/436.395/437.385
CUBEBUG 2 28 Nov 21:29:48 21:33:50 41° 75° (ENE) 21:37:47 437.445
CUTE 1.7 + AOD 2 28 Nov 21:40:21 21:43:28 20° 264° (W) 21:46:36 437.475
ZACube-1 28 Nov 21:51:37 21:55:45 56° 76° (ENE) 21:59:50 437.345
HO-68 28 Nov 21:54:20 22:00:06 26° 262° (W) 22:05:55 435.675
DOVE 4 28 Nov 22:03:21 22:07:07 24° 262° (W) 22:10:43 437.250
VELOX 1 28 Nov 22:03:28 22:07:46 48° 75° (ENE) 22:12:04 145.980
ANTELSAT 28 Nov 22:04:47 22:07:33 16° 96° (E) 22:10:20 437.575/2403.000
BRITE-PL 28 Nov 22:07:35 22:09:47 13° 264° (W) 22:11:55 437.365/2234.400
DELFI C3 28 Nov 22:08:44 22:12:28 35° 261° (W) 22:16:13 145.870
NANOSAT C BR1 28 Nov 22:13:44 22:14:53 11° 94° (E) 22:16:02 145.865
ESTCUBE 1 28 Nov 22:14:06 22:17:32 22° 71° (ENE) 22:20:59 437.505/2401.250
50 SAT 28 Nov 22:15:19 22:19:13 50° 76° (ENE) 22:23:06 437.505
CINEMA 3 28 Nov 22:16:20 22:20:07 27° 262° (W) 22:23:47 145.822/145.860
UKube-1 28 Nov 22:18:05 22:21:49 28° 262° (W) 22:25:34 .
QB50P1 28 Nov 22:22:50 22:25:18 15° 96° (E) 22:27:47 145.935-145.965
JUGNU 28 Nov 22:22:57 22:28:02 31° 170° (S) 22:33:10 437.505
FUNcube-1 28 Nov 22:25:50 22:29:55 49° 260° (W) 22:33:58 145.935
Oscar 11 28 Nov 22:27:53 22:30:53 19° 264° (W) 22:33:55 145.826/435.025
AISAT 28 Nov 22:31:30 22:35:58 73° 258° (WSW) 22:40:26 437.250
CUBEBUG 1 28 Nov 22:33:13 22:37:13 34° 74° (ENE) 22:41:14 437.445
ISS 28 Nov 22:37:24 22:39:44 18° 320° (NW) 22:42:06 145.825
SRMSAT 28 Nov 22:39:55 22:44:23 22° 164° (SSE) 22:48:53 437.500
POPSAT HIP 1 28 Nov 22:46:55 22:50:41 31° 98° (E) 22:54:26 437.405
HUMSAT D 28 Nov 22:47:37 22:51:34 45° 260° (W) 22:55:31 437.325/437.525
TIGRISAT 28 Nov 22:55:18 22:59:47 66° 101° (E) 23:04:21 435.000
DANDE 28 Nov 22:59:34 23:03:25 18° 81° (E) 23:07:56 436.750
UWE-3 28 Nov 23:01:44 23:04:09 15° 264° (W) 23:06:34 435.000/436.395/437.385
CUBEBUG 2 28 Nov 23:10:04 23:10:37 10° 265° (W) 23:11:11 437.445
UNISAT 6 28 Nov 23:10:43 23:15:14 78° 283° (WNW) 23:19:51 437.425
POLYITAN 1 28 Nov 23:22:01 23:26:16 84° 283° (WNW) 23:30:30 437.675
QB50P2 28 Nov 23:22:46 23:27:00 82° 283° (WNW) 23:31:14 145.880/145.840
TISAT 1 28 Nov 23:25:00 23:28:45 31° 73° (ENE) 23:32:30 437.305
DUCHIFAT 1 28 Nov 23:26:43 23:30:55 75° 283° (WNW) 23:35:06 145.980
ANTELSAT 28 Nov 23:40:15 23:44:19 34° 286° (WNW) 23:48:28 437.575/2403.000
VELOX 1 28 Nov 23:43:54 23:44:29 10° 266° (W) 23:45:05 145.980
SPROUT 28 Nov 23:44:19 23:48:28 47° 75° (ENE) 23:52:36 437.525
NANOSAT C BR1 28 Nov 23:46:55 23:50:51 39° 285° (WNW) 23:54:46 145.865
ESTCUBE 1 28 Nov 23:50:30 23:54:13 25° 263° (W) 23:57:57 437.505/2401.250
BUGSAT 1 28 Nov 23:51:20 23:55:09 41° 285° (WNW) 23:58:56 437.445
QB50P1 28 Nov 23:57:31 00:01:10 29° 287° (WNW) 00:04:49 145.935-145.965
MaSat-1 28 Nov 23:57:33 23:58:00 10° 65° (ENE) 23:58:27 437.345
CUSAT 1 29 Nov 00:01:05 00:06:44 85° 83° (E) 00:14:09 437.405
ITUPSAT 1 29 Nov 00:05:23 00:07:02 12° 67° (ENE) 00:08:40 437.325
RS-15 29 Nov 00:08:20 00:18:07 32° 52° (NE) 00:28:11 29.354- 29.394
CUBEBUG 1 29 Nov 00:11:08 00:13:36 15° 265° (W) 00:16:04 437.445
JUGNU 29 Nov 00:11:18 00:16:42 38° 180° (S) 00:22:09 437.505
SWISSCUBE 29 Nov 00:13:32 00:16:34 17° 69° (ENE) 00:19:35 437.505
POPSAT HIP 1 29 Nov 00:23:58 00:26:16 15° 290° (WNW) 00:28:35 437.405
SRMSAT 29 Nov 00:27:46 00:33:09 35° 174° (S) 00:38:33 437.500
AUBIESAT-1 29 Nov 00:41:17 00:45:06 46° 70° (ENE) 00:49:16 437.475
DANDE 29 Nov 00:41:20 00:46:39 49° 264° (W) 00:53:35 436.750
BEESAT 29 Nov 00:42:30 00:46:45 33° 73° (ENE) 00:51:02 436.000
M-CUBED/EXP-1 PRIME 29 Nov 00:48:42 00:52:37 65° 72° (ENE) 00:56:56 437.505
TISAT 1 29 Nov 01:02:09 01:04:34 15° 264° (W) 01:06:59 437.305
ITUPSAT 1 29 Nov 01:39:42 01:44:23 53° 259° (W) 01:49:06 437.325
Oscar 19 29 Nov 01:45:36 01:50:45 65° 101° (ESE) 01:55:53 437.125/150
SWISSCUBE 29 Nov 01:49:41 01:54:04 36° 261° (W) 01:58:30 437.505
KKS-1 29 Nov 01:53:55 01:58:01 37° 74° (ENE) 02:02:07 437.445
Gurwin Techsat 1B 29 Nov 01:59:30 02:02:37 16° 95° (E) 02:05:43 435.225
JUGNU 29 Nov 02:00:15 02:05:22 30° 190° (S) 02:10:31 437.505
SO-50 29 Nov 02:13:01 02:17:07 38° 112° (ESE) 02:21:20 436.795
SRMSAT 29 Nov 02:16:32 02:22:01 37° 184° (S) 02:27:30 437.500
RS-15 29 Nov 02:19:48 02:30:58 63° 249° (WSW) 02:42:38 29.354- 29.394
BEESAT 29 Nov 02:21:23 02:24:34 18° 264° (W) 02:27:47 436.000
YUBILEINY 29 Nov 02:24:25 02:33:12 77° 93° (E) 02:41:58 435.215
STARS 29 Nov 02:42:24 02:46:49 82° 258° (WSW) 02:51:13 437.465
ITAMSAT 1 29 Nov 02:45:58 02:51:09 85° 284° (WNW) 02:56:18 435.822/435.867
HORYU 2 29 Nov 03:10:51 03:15:00 36° 99° (E) 03:19:08 437.375
AO-7 29 Nov 03:20:10 03:25:50 20° 97° (E) 03:31:26 29.400- 29.500
Oscar 19 29 Nov 03:28:14 03:29:28 11° 294° (WNW) 03:30:41 437.125/150
KKS-1 29 Nov 03:32:34 03:34:42 13° 265° (W) 03:36:50 437.445
Gurwin Techsat 1B 29 Nov 03:37:39 03:42:41 45° 287° (WNW) 03:47:41 435.225
JUGNU 29 Nov 03:50:19 03:53:56 17° 198° (SSW) 03:57:34 437.505
SO-50 29 Nov 03:54:58 03:57:47 16° 306° (NW) 04:00:38 436.795
SRMSAT 29 Nov 04:05:56 04:10:49 26° 193° (SSW) 04:15:43 437.500
PCSat 29 Nov 04:25:20 04:30:18 36° 62° (ENE) 04:35:13 145.827
YUBILEINY 29 Nov 04:25:38 04:30:40 16° 288° (WNW) 04:35:45 435.215
BEESAT 3 29 Nov 04:31:54 04:35:32 29° 59° (ENE) 04:39:08 437.485
HORYU 2 29 Nov 04:48:48 04:51:19 15° 291° (WNW) 04:53:50 437.375
BEESAT 2 29 Nov 04:49:55 04:53:54 42° 61° (ENE) 04:57:49 435.950
O/OREOS (USA 219) 29 Nov 04:53:27 04:57:43 45° 104° (ESE) 05:01:59 437.305
MOZHAYETS 4 29 Nov 04:58:25 05:02:59 73° 259° (W) 05:07:36
PRISM 29 Nov 04:58:54 05:01:19 15° 70° (ENE) 05:03:45 437.425
AO-7 29 Nov 05:10:40 05:18:56 67° 289° (WNW) 05:27:11 29.400- 29.500
ISS 29 Nov 05:10:56 05:13:07 17° 39° (NE) 05:15:19 145.825
JAS-2 29 Nov 05:28:28 05:35:02 67° 101° (E) 05:40:46 435.910
STRAND 1 29 Nov 05:29:12 05:31:49 14° 67° (ENE) 05:34:26 437.568
AIST 2 29 Nov 05:39:29 05:43:46 76° 63° (ENE) 05:47:57 435.215
Cubesat XI-IV 29 Nov 05:52:15 05:56:28 24° 97° (E) 06:00:39 437.490
SRMSAT 29 Nov 05:57:14 05:59:31 12° 201° (SSW) 06:01:48 437.500
PCSat 29 Nov 06:09:23 06:13:23 21° 254° (WSW) 06:17:23 145.827
BEESAT 3 29 Nov 06:10:51 06:13:28 16° 251° (WSW) 06:16:04 437.485
GONETS M04 29 Nov 06:26:14 06:28:28 11° 80° (E) 06:30:41
BEESAT 2 29 Nov 06:30:38 06:31:43 11° 253° (WSW) 06:32:49 435.950
CUTE-I 29 Nov 06:31:45 06:37:01 63° 102° (ESE) 06:42:15 437.470
PRISM 29 Nov 06:32:51 06:36:33 30° 261° (W) 06:40:18 437.425
O/OREOS (USA 219) 29 Nov 06:35:39 06:37:17 12° 297° (WNW) 06:38:54 437.305
ISS 29 Nov 06:46:51 06:49:46 29° 232° (SW) 06:52:41 145.825
CUBESAT XI-V 29 Nov 06:49:30 06:54:11 68° 259° (W) 06:58:54 437.345
STRAND 1 29 Nov 07:05:33 07:10:31 50° 259° (W) 07:15:30 437.568
AIST 1 29 Nov 07:12:00 07:16:16 58° 267° (W) 07:20:29
JAS-2 29 Nov 07:15:52 07:19:09 14° 298° (WNW) 07:22:16 435.910
Cubesat XI-IV 29 Nov 07:31:53 07:36:27 30° 289° (WNW) 07:41:01 437.490
CUTE-I 29 Nov 08:14:40 08:16:28 12° 294° (WNW) 08:18:16 437.470
GONETS M04 29 Nov 08:15:07 08:23:54 86° 94° (E) 08:32:47
SEEDS 29 Nov 08:26:12 08:28:17 13° 95° (E) 08:30:22 437.485
AAUSAT CUBESAT 2 29 Nov 08:36:00 08:37:48 12° 95° (E) 08:39:35 437.432
BRITE-PL 29 Nov 08:38:41 08:42:00 22° 98° (E) 08:45:26 437.365/2234.400
COMPASS 1 29 Nov 08:52:19 08:55:47 24° 97° (E) 08:59:15 437.405
CANX-2 29 Nov 08:57:31 09:01:39 46° 100° (E) 09:05:47 2200.000
DX 1 29 Nov 09:16:54 09:19:38 16° 96° (E) 09:22:21 434.975-435.025
UWE-3 29 Nov 09:23:18 09:24:09 11° 95° (E) 09:25:01 435.000/436.395/437.385
HO-68 29 Nov 09:27:58 09:35:10 88° 105° (ESE) 09:42:19 435.675
CUBEBUG 2 29 Nov 09:28:56 09:31:36 16° 96° (E) 09:34:18 437.445
GOMX 1 29 Nov 09:29:10 09:33:24 71° 101° (ESE) 09:37:51 467.674
CUTE 1.7 + AOD 2 29 Nov 09:31:33 09:35:50 69° 283° (WNW) 09:40:06 437.475
POPSAT HIP 1 29 Nov 09:36:27 09:37:14 10° 69° (ENE) 09:38:01 437.405
ZACube-1 29 Nov 09:48:07 09:51:14 19° 97° (E) 09:54:24 437.345
TIGRISAT 29 Nov 09:48:32 09:51:56 24° 72° (ENE) 09:55:19 435.000
DELFI C3 29 Nov 09:56:12 10:00:15 53° 100° (E) 10:04:17 145.870
SEEDS 29 Nov 10:00:16 10:04:08 34° 286° (WNW) 10:08:00 437.485
VELOX 1 29 Nov 10:02:41 10:05:26 16° 96° (E) 10:08:11 145.980
UNISAT 6 29 Nov 10:03:39 10:07:36 37° 74° (ENE) 10:11:32 437.425
50 SAT 29 Nov 10:04:57 10:06:47 13° 95° (E) 10:08:38 437.505
DOVE 4 29 Nov 10:08:22 10:12:31 51° 284° (WNW) 10:16:51 437.250
POLYITAN 1 29 Nov 10:09:09 10:12:49 29° 73° (ENE) 10:16:30 437.675
QB50P2 29 Nov 10:09:38 10:13:20 29° 73° (ENE) 10:17:02 145.880/145.840
AAUSAT CUBESAT 2 29 Nov 10:09:38 10:13:31 36° 286° (WNW) 10:17:24 437.432
UKube-1 29 Nov 10:12:16 10:16:37 85° 103° (ESE) 10:20:56 .
DUCHIFAT 1 29 Nov 10:13:07 10:16:54 32° 74° (ENE) 10:20:40 145.980
CINEMA 3 29 Nov 10:17:14 10:21:32 71° 283° (WNW) 10:26:02 145.822/145.860
BRITE-PL 29 Nov 10:17:21 10:20:23 20° 287° (WNW) 10:23:29 437.365/2234.400
GONETS M04 29 Nov 10:17:30 10:21:36 14° 290° (WNW) 10:25:45
Oscar 11 29 Nov 10:20:51 10:25:09 59° 284° (WNW) 10:29:25 145.826/435.025
FUNcube-1 29 Nov 10:21:09 10:25:21 51° 100° (E) 10:29:38 145.935
COMPASS 1 29 Nov 10:28:18 10:31:18 19° 288° (WNW) 10:34:19 437.405
AISAT 29 Nov 10:30:03 10:34:09 37° 99° (E) 10:38:13 437.250
CUBEBUG 1 29 Nov 10:31:57 10:33:00 11° 94° (E) 10:34:04 437.445
ANTELSAT 29 Nov 10:32:29 10:36:45 88° 256° (WSW) 10:41:02 437.575/2403.000
NANOSAT C BR1 29 Nov 10:32:43 10:36:54 59° 76° (ENE) 10:41:05 145.865
BUGSAT 1 29 Nov 10:34:29 10:38:36 50° 75° (ENE) 10:42:41 437.445
CANX-2 29 Nov 10:36:15 10:37:08 11° 291° (WNW) 10:38:00 2200.000
HUMSAT D 29 Nov 10:39:01 10:43:05 48° 100° (E) 10:47:12 437.325/437.525
VERMONT LUNAR 29 Nov 10:42:27 10:43:52 12° 138° (SE) 10:45:18 437.305
QB50P1 29 Nov 10:43:04 10:47:20 82° 77° (ENE) 10:51:35 145.935-145.965
DX 1 29 Nov 10:52:06 10:55:50 29° 287° (WNW) 10:59:33 434.975-435.025
UWE-3 29 Nov 10:56:40 11:00:47 44° 285° (WNW) 11:05:00 435.000/436.395/437.385
CUBEBUG 2 29 Nov 11:04:27 11:08:15 31° 286° (WNW) 11:12:09 437.445
POPSAT HIP 1 29 Nov 11:08:37 11:12:41 45° 260° (W) 11:16:46 437.405
HO-68 29 Nov 11:19:05 11:21:53 13° 299° (WNW) 11:24:42 435.675
ZACube-1 29 Nov 11:23:59 11:27:30 25° 287° (WNW) 11:31:04 437.345
TIGRISAT 29 Nov 11:25:34 11:28:35 19° 263° (W) 11:31:36 435.000
VELOX 1 29 Nov 11:38:09 11:42:00 30° 287° (WNW) 11:45:49 145.980
50 SAT 29 Nov 11:38:27 11:42:06 32° 286° (WNW) 11:45:46 437.505
SPROUT 29 Nov 11:39:41 11:42:04 15° 95° (E) 11:44:26 437.525
UNISAT 6 29 Nov 11:42:59 11:44:28 12° 265° (W) 11:45:58 437.425
POLYITAN 1 29 Nov 11:46:11 11:48:44 16° 264° (W) 11:51:17 437.675
QB50P2 29 Nov 11:46:43 11:49:14 15° 264° (W) 11:51:44 145.880/145.840
ESTCUBE 1 29 Nov 11:49:34 11:54:04 67° 284° (WNW) 11:58:31 437.505/2401.250
DUCHIFAT 1 29 Nov 11:50:31 11:52:46 14° 265° (W) 11:55:01 145.980
CUBEBUG 1 29 Nov 12:05:24 12:09:30 42° 286° (WNW) 12:13:34 437.445
AISAT 29 Nov 12:08:13 12:10:24 14° 291° (WNW) 12:12:35 437.250
DANDE 29 Nov 12:10:15 12:11:59 15° 95° (E) 12:13:38 436.750
VERMONT LUNAR 29 Nov 12:18:23 12:21:58 79° 329° (NNW) 12:25:35 437.305
PHONESAT 2.4 29 Nov 12:22:41 12:26:21 71° 146° (SE) 12:30:02 2401.200-2431.200
SO-50 29 Nov 12:30:54 12:35:48 73° 63° (ENE) 12:40:41 436.795
M-CUBED/EXP-1 PRIME 29 Nov 12:40:41 12:42:52 13° 97° (E) 12:45:01 437.505
YUBILEINY 29 Nov 12:44:32 12:51:33 27° 76° (ENE) 12:58:30 435.215
BEESAT 29 Nov 12:51:08 12:53:54 15° 95° (E) 12:56:38 436.000
TISAT 1 29 Nov 12:52:22 12:56:26 50° 285° (WNW) 13:00:29 437.305
Oscar 19 29 Nov 12:55:43 13:00:34 45° 74° (ENE) 13:05:25 437.125/150
CUSAT 1 29 Nov 13:10:04 13:12:19 22° 279° (W) 13:14:27 437.405
SPROUT 29 Nov 13:14:23 13:18:09 31° 286° (WNW) 13:21:54 437.525
Gurwin Techsat 1B 29 Nov 13:14:57 13:17:19 13° 67° (ENE) 13:19:42 435.225
MaSat-1 29 Nov 13:17:56 13:19:23 13° 107° (ESE) 13:20:47 437.345
ITUPSAT 1 29 Nov 13:47:26 13:52:13 72° 102° (ESE) 13:56:58 437.325
KKS-1 29 Nov 13:53:55 13:55:58 13° 95° (E) 13:58:01 437.445
SWISSCUBE 29 Nov 13:56:50 14:01:38 79° 284° (WNW) 14:06:23 437.505
ITAMSAT 1 29 Nov 13:56:53 14:02:04 72° 76° (ENE) 14:07:16 435.822/435.867
VERMONT LUNAR 29 Nov 13:58:16 14:00:48 18° 343° (NNW) 14:03:21 437.305
PHONESAT 2.4 29 Nov 14:02:25 14:05:22 22° 340° (NNW) 14:08:19 2401.200-2431.200
HORYU 2 29 Nov 14:04:25 14:06:51 15° 69° (ENE) 14:09:18 437.375
AUBIESAT-1 29 Nov 14:05:18 14:10:07 66° 288° (WNW) 14:14:39 437.475
M-CUBED/EXP-1 PRIME 29 Nov 14:13:23 14:18:05 48° 290° (WNW) 14:22:32 437.505
AO-7 29 Nov 14:13:47 14:18:00 15° 58° (ENE) 14:22:13 29.400- 29.500
RS-15 29 Nov 14:23:26 14:33:16 38° 107° (ESE) 14:42:54 29.354- 29.394
BEESAT 29 Nov 14:27:23 14:31:47 38° 287° (WNW) 14:36:10 436.000
Oscar 19 29 Nov 14:37:20 14:40:01 14° 265° (W) 14:42:42 437.125/150
STARS 29 Nov 14:39:52 14:43:48 32° 99° (E) 14:47:43 437.465
YUBILEINY 29 Nov 14:40:14 14:48:28 50° 270° (W) 14:56:42 435.215
Gurwin Techsat 1B 29 Nov 14:51:32 14:56:44 57° 259° (W) 15:01:57 435.225
MaSat-1 29 Nov 14:51:55 14:53:37 14° 294° (WNW) 14:55:14 437.345
O/OREOS (USA 219) 29 Nov 15:10:34 15:14:25 28° 67° (ENE) 15:18:16 437.305
KKS-1 29 Nov 15:28:34 15:32:40 38° 286° (WNW) 15:36:46 437.445
JAS-2 29 Nov 15:33:24 15:38:02 17° 63° (ENE) 15:42:43 435.910
VERMONT LUNAR 29 Nov 15:39:06 15:40:14 11° 0° (N) 15:41:22 437.305
HORYU 2 29 Nov 15:39:09 15:43:11 35° 261° (W) 15:47:14 437.375
PHONESAT 2.4 29 Nov 15:43:36 15:45:03 12° 357° (N) 15:46:30 2401.200-2431.200
AO-7 29 Nov 16:01:22 16:09:39 89° 253° (WSW) 16:18:00 29.400- 29.500
STARS 29 Nov 16:17:20 16:19:59 16° 290° (WNW) 16:22:37 437.465
RS-15 29 Nov 16:34:46 16:45:11 47° 303° (WNW) 16:55:36 29.354- 29.394
O/OREOS (USA 219) 29 Nov 16:50:32 16:53:32 18° 259° (W) 16:56:33 437.305
MOZHAYETS 4 29 Nov 17:00:51 17:05:19 46° 99° (E) 17:09:46
Cubesat XI-IV 29 Nov 17:08:00 17:11:54 21° 69° (ENE) 17:15:48 437.490
